TimeCST,TemperatureF,Dew PointF,Humidity,Sea Level PressureIn,VisibilityMPH,Wind Direction,Wind SpeedMPH,Gust SpeedMPH,PrecipitationIn,Events,Conditions,WindDirDegrees,DateUTC
12:14 AM,23.0,19.4,86,30.13,10.0,SE,10.4,-,N/A,,Clear,130,2013-11-19 06:14:00
12:34 AM,24.8,19.4,80,30.13,10.0,SE,10.4,-,N/A,,Clear,140,2013-11-19 06:34:00
12:54 AM,24.8,19.4,80,30.12,10.0,SE,11.5,-,N/A,,Clear,130,2013-11-19 06:54:00
1:14 AM,24.8,19.4,80,30.12,10.0,SE,11.5,-,N/A,,Clear,130,2013-11-19 07:14:00
1:34 AM,24.8,19.4,80,30.11,10.0,SE,10.4,-,N/A,,Clear,130,2013-11-19 07:34:00
1:54 AM,24.8,19.4,80,30.10,10.0,ESE,10.4,-,N/A,,Clear,120,2013-11-19 07:54:00
2:14 AM,24.8,19.4,80,30.10,10.0,ESE,10.4,-,N/A,,Clear,120,2013-11-19 08:14:00
2:33 AM,24.8,19.4,80,30.09,10.0,ESE,11.5,-,N/A,,Clear,120,2013-11-19 08:33:00
2:54 AM,24.8,19.4,80,30.09,10.0,ESE,11.5,-,N/A,,Clear,120,2013-11-19 08:54:00
3:14 AM,24.8,19.4,80,30.08,10.0,ESE,11.5,-,N/A,,Clear,120,2013-11-19 09:14:00
3:33 AM,24.8,19.4,80,30.06,10.0,SE,12.7,-,N/A,,Clear,130,2013-11-19 09:33:00
3:54 AM,24.8,21.2,86,30.05,10.0,ESE,11.5,-,N/A,,Clear,120,2013-11-19 09:54:00
4:14 AM,24.8,19.4,80,30.05,10.0,ESE,10.4,-,N/A,,Clear,120,2013-11-19 10:14:00
4:33 AM,24.8,19.4,80,30.04,10.0,ESE,11.5,-,N/A,,Clear,120,2013-11-19 10:33:00
4:54 AM,24.8,19.4,80,30.02,10.0,ESE,11.5,-,N/A,,Clear,120,2013-11-19 10:54:00
5:14 AM,24.8,21.2,86,30.01,10.0,SE,13.8,-,N/A,,Clear,130,2013-11-19 11:14:00
5:33 AM,26.6,21.2,80,30.00,10.0,SE,13.8,-,N/A,,Clear,130,2013-11-19 11:33:00
5:54 AM,24.8,21.2,86,30.00,10.0,ESE,11.5,-,N/A,,Clear,120,2013-11-19 11:54:00
6:14 AM,26.6,21.2,80,29.98,10.0,ESE,13.8,-,N/A,,Clear,120,2013-11-19 12:14:00
6:33 AM,26.6,21.2,80,29.97,10.0,ESE,11.5,-,N/A,,Clear,120,2013-11-19 12:33:00
6:54 AM,26.6,21.2,80,29.97,10.0,SE,13.8,-,N/A,,Clear,130,2013-11-19 12:54:00
7:14 AM,26.6,23.0,86,29.96,10.0,SE,13.8,-,N/A,,Clear,130,2013-11-19 13:14:00
7:34 AM,28.4,23.0,80,29.95,10.0,SE,16.1,-,N/A,,Clear,130,2013-11-19 13:34:00
7:54 AM,28.4,24.8,86,29.94,10.0,SE,18.4,21.9,N/A,,Clear,130,2013-11-19 13:54:00
8:13 AM,30.2,24.8,80,29.93,10.0,SE,18.4,23.0,N/A,,Clear,130,2013-11-19 14:13:00
8:34 AM,30.2,24.8,80,29.92,10.0,SE,19.6,24.2,N/A,,Clear,130,2013-11-19 14:34:00
8:54 AM,30.2,26.6,86,29.91,10.0,SE,18.4,24.2,N/A,,Clear,130,2013-11-19 14:54:00
9:13 AM,32.0,26.6,80,29.91,10.0,SE,18.4,24.2,N/A,,Clear,130,2013-11-19 15:13:00
9:34 AM,33.8,26.6,75,29.90,10.0,SE,17.3,24.2,N/A,,Clear,140,2013-11-19 15:34:00
9:53 AM,33.8,26.6,75,29.89,10.0,SE,18.4,23.0,N/A,,Clear,140,2013-11-19 15:53:00
10:14 AM,35.6,26.6,70,29.88,10.0,SE,17.3,-,N/A,,Clear,140,2013-11-19 16:14:00
10:34 AM,37.4,28.4,70,29.86,10.0,SE,16.1,21.9,N/A,,Clear,140,2013-11-19 16:34:00
10:53 AM,39.2,28.4,65,29.85,10.0,SE,15.0,20.7,N/A,,Clear,140,2013-11-19 16:53:00
11:14 AM,42.8,28.4,57,29.84,10.0,SSE,11.5,20.7,N/A,,Clear,150,2013-11-19 17:14:00
11:34 AM,42.8,28.4,57,29.83,10.0,SSE,13.8,19.6,N/A,,Clear,150,2013-11-19 17:34:00
11:53 AM,44.6,28.4,53,29.81,10.0,SSE,11.5,16.1,N/A,,Clear,150,2013-11-19 17:53:00
12:14 PM,48.2,26.6,43,29.79,10.0,SSE,12.7,18.4,N/A,,Clear,160,2013-11-19 18:14:00
12:34 PM,48.2,26.6,43,29.77,10.0,SSE,15.0,19.6,N/A,,Clear,160,2013-11-19 18:34:00
12:53 PM,48.2,26.6,43,29.77,10.0,SSE,13.8,19.6,N/A,,Clear,160,2013-11-19 18:53:00
1:14 PM,50.0,26.6,40,29.76,10.0,SSE,17.3,-,N/A,,Scattered Clouds,160,2013-11-19 19:14:00
1:33 PM,51.8,28.4,41,29.75,10.0,SSE,15.0,21.9,N/A,,Clear,160,2013-11-19 19:33:00
1:54 PM,53.6,26.6,35,29.73,10.0,South,19.6,25.3,N/A,,Clear,170,2013-11-19 19:54:00
2:14 PM,53.6,28.4,38,29.72,10.0,South,18.4,25.3,N/A,,Clear,170,2013-11-19 20:14:00
2:34 PM,51.8,30.2,44,29.71,10.0,SSE,15.0,21.9,N/A,,Clear,150,2013-11-19 20:34:00
2:54 PM,51.8,28.4,41,29.70,10.0,SSE,17.3,21.9,N/A,,Clear,160,2013-11-19 20:54:00
3:14 PM,53.6,30.2,41,29.70,10.0,SSE,18.4,26.5,N/A,,Clear,150,2013-11-19 21:14:00
3:34 PM,51.8,30.2,44,29.69,10.0,SSE,12.7,20.7,N/A,,Clear,150,2013-11-19 21:34:00
3:54 PM,51.8,30.2,44,29.69,10.0,SSE,17.3,23.0,N/A,,Clear,150,2013-11-19 21:54:00
4:14 PM,51.8,30.2,44,29.69,10.0,SSE,18.4,25.3,N/A,,Clear,160,2013-11-19 22:14:00
4:34 PM,51.8,30.2,44,29.69,10.0,SSE,18.4,24.2,N/A,,Clear,160,2013-11-19 22:34:00
4:53 PM,51.8,30.2,44,29.68,10.0,SSE,19.6,24.2,N/A,,Clear,160,2013-11-19 22:53:00
5:14 PM,51.8,30.2,44,29.68,10.0,SSE,16.1,25.3,N/A,,Clear,160,2013-11-19 23:14:00
5:34 PM,51.8,30.2,44,29.67,10.0,SSE,16.1,23.0,N/A,,Clear,160,2013-11-19 23:34:00
5:53 PM,51.8,30.2,44,29.67,10.0,SSE,17.3,26.5,N/A,,Clear,160,2013-11-19 23:53:00
6:14 PM,51.8,30.2,44,29.67,10.0,SSE,18.4,24.2,N/A,,Clear,160,2013-11-20 00:14:00
6:34 PM,51.8,30.2,44,29.67,10.0,SSE,18.4,24.2,N/A,,Clear,160,2013-11-20 00:34:00
6:53 PM,51.8,32.0,47,29.67,10.0,SSE,13.8,21.9,N/A,,Clear,150,2013-11-20 00:53:00
7:14 PM,50.0,32.0,50,29.67,10.0,SE,11.5,18.4,N/A,,Clear,140,2013-11-20 01:14:00
7:33 PM,48.2,32.0,54,29.68,10.0,SSE,9.2,-,N/A,,Clear,150,2013-11-20 01:33:00
7:54 PM,48.2,32.0,54,29.68,10.0,SSE,10.4,-,N/A,,Clear,160,2013-11-20 01:54:00
8:13 PM,51.8,32.0,47,29.68,10.0,SSE,12.7,19.6,N/A,,Clear,160,2013-11-20 02:13:00
8:34 PM,50.0,33.8,54,29.68,10.0,SSE,10.4,-,N/A,,Clear,150,2013-11-20 02:34:00
8:53 PM,50.0,32.0,50,29.67,10.0,SSE,11.5,19.6,N/A,,Clear,150,2013-11-20 02:53:00
9:14 PM,48.2,30.2,50,29.67,10.0,SSE,12.7,18.4,N/A,,Clear,150,2013-11-20 03:14:00
9:34 PM,50.0,30.2,47,29.67,10.0,South,15.0,19.6,N/A,,Clear,170,2013-11-20 03:34:00
9:53 PM,51.8,28.4,41,29.66,10.0,South,16.1,24.2,N/A,,Clear,170,2013-11-20 03:53:00
10:14 PM,51.8,28.4,41,29.66,10.0,South,17.3,26.5,N/A,,Clear,170,2013-11-20 04:14:00
10:34 PM,50.0,26.6,40,29.66,10.0,South,17.3,24.2,N/A,,Clear,170,2013-11-20 04:34:00
10:54 PM,50.0,26.6,40,29.66,10.0,South,19.6,26.5,N/A,,Clear,170,2013-11-20 04:54:00
11:14 PM,50.0,26.6,40,29.66,10.0,South,19.6,26.5,N/A,,Clear,180,2013-11-20 05:14:00
11:33 PM,50.0,26.6,40,29.66,10.0,South,18.4,24.2,N/A,,Clear,180,2013-11-20 05:33:00
11:54 PM,50.0,26.6,40,29.66,10.0,South,18.4,25.3,N/A,,Clear,170,2013-11-20 05:54:00